| time (UTC) | temp C | wind direction | speed KPH | gust KPH | rain 1hr cm | rain 24hr cm | rain mn cm | humidity % | barometer mb |
| 20260507051009 | 18 | 242 | 0.0 | 0.0 | 0.00 | 0.00 | 0.00 | 90 | 1009.0 |
| 20260507050506 | 18 | 242 | 0.0 | 0.0 | 0.00 | 0.00 | 0.00 | 90 | 1009.1 |
| 20260507050031 | 18 | 242 | 0.0 | 1.6 | 0.00 | 0.00 | 0.00 | 90 | 1008.9 |
| 20260507045509 | 18 | 360 | 0.0 | 1.6 | 0.00 | 0.00 | 0.00 | 90 | 1009.0 |
| 20260507045010 | 18 | 360 | 0.0 | 1.6 | 0.00 | 0.00 | 0.00 | 90 | 1009.1 |
| 20260507044526 | 18 | 360 | 0.0 | 1.6 | 0.00 | 0.00 | 0.00 | 90 | 1009.3 |
| 20260507044011 | 18 | 360 | 0.0 | 1.6 | 0.00 | 0.00 | 0.00 | 90 | 1009.4 |
| 20260507043503 | 18 | 360 | 0.0 | 0.0 | 0.00 | 0.00 | 0.00 | 90 | 1009.3 |
| 20260507043018 | 18 | 360 | 0.0 | 0.0 | 0.00 | 0.00 | 0.00 | 90 | 1009.2 |
| 20260507042511 | 18 | 360 | 0.0 | 0.0 | 0.00 | 0.00 | 0.00 | 90 | 1009.3 |
| 20260507042005 | 18 | 360 | 0.0 | 1.6 | 0.00 | 0.00 | 0.00 | 89 | 1009.3 |
| 20260507041524 | 18 | 240 | 0.0 | 1.6 | 0.00 | 0.00 | 0.00 | 89 | 1009.4 |
| 20260507041008 | 18 | 242 | 0.0 | 0.0 | 0.00 | 0.00 | 0.00 | 89 | 1009.3 |
| 20260507040507 | 18 | 242 | 0.0 | 1.6 | 0.00 | 0.00 | 0.00 | 89 | 1009.2 |
| 20260507040024 | 18 | 242 | 0.0 | 1.6 | 0.00 | 0.00 | 0.00 | 89 | 1009.2 |
| 20260507035507 | 18 | 241 | 0.0 | 1.6 | 0.00 | 0.00 | 0.00 | 89 | 1009.2 |
| 20260507035008 | 18 | 241 | 0.0 | 0.0 | 0.00 | 0.00 | 0.00 | 89 | 1009.1 |
| 20260507034532 | 18 | 360 | 0.0 | 0.0 | 0.00 | 0.00 | 0.00 | 89 | 1009.0 |
| 20260507034009 | 18 | 360 | 0.0 | 0.0 | 0.00 | 0.00 | 0.00 | 89 | 1008.7 |
| 20260507033508 | 18 | 360 | 0.0 | 1.6 | 0.00 | 0.00 | 0.00 | 88 | 1008.7 |
| 20260507033026 | 18 | 241 | 0.0 | 1.6 | 0.00 | 0.00 | 0.00 | 88 | 1008.9 |
| 20260507032506 | 18 | 242 | 0.0 | 1.6 | 0.00 | 0.00 | 0.00 | 88 | 1009.0 |
| 20260507032007 | 18 | 242 | 0.0 | 1.6 | 0.00 | 0.00 | 0.00 | 88 | 1009.1 |
| 20260507031518 | 18 | 240 | 0.0 | 1.6 | 0.00 | 0.00 | 0.00 | 88 | 1008.9 |
| 20260507031008 | 18 | 241 | 0.0 | 1.6 | 0.00 | 0.00 | 0.00 | 87 | 1008.9 |
| 20260507030508 | 18 | 242 | 0.0 | 1.6 | 0.00 | 0.00 | 0.00 | 87 | 1009.1 |
| 20260507030023 | 18 | 242 | 0.0 | 1.6 | 0.00 | 0.00 | 0.00 | 87 | 1009.0 |
| 20260507025508 | 18 | 360 | 0.0 | 1.6 | 0.00 | 0.00 | 0.00 | 86 | 1009.1 |
| 20260507025007 | 18 | 360 | 0.0 | 0.0 | 0.00 | 0.00 | 0.00 | 86 | 1009.1 |
| 20260507024529 | 18 | 360 | 0.0 | 0.0 | 0.00 | 0.00 | 0.00 | 86 | 1009.1 |
| 20260507024007 | 18 | 360 | 0.0 | 0.0 | 0.00 | 0.00 | 0.00 | 86 | 1009.2 |
| 20260507023511 | 18 | 360 | 0.0 | 1.6 | 0.00 | 0.00 | 0.00 | 86 | 1009.3 |
| 20260507023027 | 18 | 360 | 0.0 | 1.6 | 0.00 | 0.00 | 0.00 | 86 | 1009.4 |
| 20260507022510 | 18 | 360 | 0.0 | 0.0 | 0.00 | 0.00 | 0.00 | 86 | 1009.4 |
| 20260507022010 | 18 | 360 | 0.0 | 0.0 | 0.00 | 0.00 | 0.00 | 85 | 1009.4 |
| 20260507021529 | 18 | 241 | 0.0 | 0.0 | 0.00 | 0.00 | 0.00 | 85 | 1009.5 |
| 20260507021005 | 18 | 360 | 0.0 | 0.0 | 0.00 | 0.00 | 0.00 | 85 | 1009.4 |
| 20260507020503 | 18 | 360 | 0.0 | 0.0 | 0.00 | 0.00 | 0.00 | 85 | 1009.5 |
| 20260507020004 | 19 | 241 | 0.0 | 3.2 | 0.00 | 0.00 | 0.00 | 85 | 1009.5 |
| 20260507015502 | 19 | 360 | 0.0 | 3.2 | 0.00 | 0.00 | 0.00 | 85 | 1009.8 |
| 20260507015002 | 19 | 360 | 0.0 | 3.2 | 0.00 | 0.00 | 0.00 | 85 | 1009.8 |
| 20260507014503 | 19 | 360 | 0.0 | 1.6 | 0.00 | 0.00 | 0.00 | 84 | 1009.8 |
| 20260507014002 | 19 | 360 | 0.0 | 0.0 | 0.00 | 0.00 | 0.00 | 84 | 1009.7 |
| 20260507013502 | 19 | 360 | 0.0 | 0.0 | 0.00 | 0.00 | 0.00 | 84 | 1009.6 |
| 20260507013003 | 19 | 360 | 0.0 | 0.0 | 0.00 | 0.00 | 0.00 | 83 | 1009.6 |
| 20260507012501 | 19 | 360 | 0.0 | 0.0 | 0.00 | 0.00 | 0.00 | 83 | 1009.5 |
| 20260507012003 | 19 | 360 | 0.0 | 0.0 | 0.00 | 0.00 | 0.00 | 83 | 1009.5 |
| 20260507011504 | 20 | 360 | 0.0 | 0.0 | 0.00 | 0.00 | 0.00 | 82 | 1009.5 |
| 20260507011004 | 20 | 360 | 0.0 | 0.0 | 0.00 | 0.00 | 0.00 | 82 | 1009.7 |
| 20260507010502 | 20 | 360 | 0.0 | 0.0 | 0.00 | 0.00 | 0.00 | 81 | 1009.6 |
| 20260507010003 | 20 | 360 | 0.0 | 0.0 | 0.00 | 0.00 | 0.00 | 81 | 1009.7 |
| 20260507005506 | 20 | 360 | 0.0 | 1.6 | 0.00 | 0.00 | 0.00 | 81 | 1009.6 |
| 20260507005002 | 20 | 360 | 0.0 | 1.6 | 0.00 | 0.00 | 0.00 | 81 | 1009.5 |
| 20260507004503 | 20 | 360 | 0.0 | 1.6 | 0.00 | 0.00 | 0.00 | 81 | 1009.4 |
| 20260507004002 | 20 | 360 | 0.0 | 0.0 | 0.00 | 0.00 | 0.00 | 80 | 1009.3 |
| 20260507003501 | 20 | 360 | 0.0 | 1.6 | 0.00 | 0.00 | 0.00 | 80 | 1009.4 |
| 20260507003004 | 20 | 360 | 0.0 | 1.6 | 0.00 | 0.00 | 0.00 | 80 | 1009.4 |
| 20260507002503 | 20 | 360 | 0.0 | 1.6 | 0.00 | 0.00 | 0.00 | 79 | 1009.4 |
| 20260507002002 | 20 | 360 | 0.0 | 1.6 | 0.00 | 0.00 | 0.00 | 79 | 1009.2 |
| 20260507001508 | 21 | 360 | 0.0 | 1.6 | 0.00 | 0.00 | 0.00 | 79 | 1009.1 |
| 20260507001003 | 21 | 360 | 0.0 | 3.2 | 0.00 | 0.00 | 0.00 | 78 | 1009.1 |
| 20260507000503 | 21 | 360 | 0.0 | 3.2 | 0.00 | 0.00 | 0.00 | 78 | 1009.2 |
| 20260507000005 | 21 | 360 | 0.0 | 1.6 | 0.00 | 0.00 | 0.00 | 78 | 1009.0 |
| 20260506235503 | 21 | 360 | 0.0 | 1.6 | 0.00 | 0.00 | 0.00 | 78 | 1009.0 |
| 20260506235002 | 21 | 360 | 0.0 | 1.6 | 0.00 | 0.00 | 0.00 | 77 | 1009.0 |
| 20260506234504 | 21 | 360 | 0.0 | 3.2 | 0.00 | 0.00 | 0.00 | 77 | 1008.9 |
| 20260506234003 | 21 | 360 | 0.0 | 3.2 | 0.00 | 0.00 | 0.00 | 77 | 1008.9 |
| 20260506233503 | 21 | 360 | 0.0 | 3.2 | 0.00 | 0.00 | 0.00 | 77 | 1008.9 |
| 20260506233004 | 21 | 360 | 0.0 | 3.2 | 0.00 | 0.00 | 0.00 | 77 | 1009.0 |
| 20260506232502 | 21 | 360 | 0.0 | 3.2 | 0.00 | 0.00 | 0.00 | 76 | 1008.8 |
| 20260506232002 | 21 | 360 | 0.0 | 3.2 | 0.00 | 0.00 | 0.00 | 76 | 1008.8 |
| 20260506231503 | 21 | 360 | 0.0 | 6.4 | 0.00 | 0.00 | 0.00 | 76 | 1008.8 |
| 20260506231003 | 21 | 360 | 0.0 | 6.4 | 0.00 | 0.00 | 0.00 | 76 | 1008.9 |
| 20260506230503 | 21 | 360 | 0.0 | 6.4 | 0.00 | 0.00 | 0.00 | 75 | 1008.9 |
| 20260506230002 | 21 | 360 | 1.6 | 8.0 | 0.00 | 0.00 | 0.00 | 75 | 1008.9 |
| 20260506225505 | 21 | 360 | 0.0 | 8.0 | 0.00 | 0.00 | 0.00 | 75 | 1008.9 |
| 20260506225003 | 21 | 360 | 0.0 | 8.0 | 0.00 | 0.00 | 0.00 | 75 | 1008.9 |
| 20260506224503 | 21 | 360 | 1.6 | 6.4 | 0.00 | 0.00 | 0.00 | 75 | 1009.0 |
| 20260506224005 | 21 | 360 | 0.0 | 6.4 | 0.00 | 0.00 | 0.00 | 75 | 1008.9 |
| 20260506223503 | 21 | 360 | 0.0 | 6.4 | 0.00 | 0.00 | 0.00 | 75 | 1008.8 |
| 20260506223004 | 21 | 360 | 1.6 | 4.8 | 0.00 | 0.00 | 0.00 | 74 | 1008.9 |
| 20260506222503 | 22 | 360 | 1.6 | 6.4 | 0.00 | 0.00 | 0.00 | 74 | 1008.9 |
| 20260506222002 | 21 | 360 | 1.6 | 9.7 | 0.00 | 0.00 | 0.00 | 74 | 1008.9 |
| 20260506221505 | 21 | 360 | 3.2 | 9.7 | 0.00 | 0.00 | 0.00 | 74 | 1008.9 |
| 20260506221002 | 21 | 360 | 1.6 | 8.0 | 0.00 | 0.00 | 0.00 | 74 | 1008.8 |
| 20260506220502 | 21 | 360 | 1.6 | 9.7 | 0.00 | 0.00 | 0.00 | 74 | 1008.7 |
| 20260506220004 | 22 | 360 | 3.2 | 9.7 | 0.00 | 0.00 | 0.00 | 74 | 1008.6 |
| 20260506215503 | 22 | 360 | 1.6 | 8.0 | 0.00 | 0.00 | 0.00 | 74 | 1008.7 |
| 20260506215003 | 22 | 360 | 1.6 | 9.7 | 0.00 | 0.00 | 0.00 | 74 | 1008.8 |
| 20260506214503 | 22 | 360 | 3.2 | 9.7 | 0.00 | 0.00 | 0.00 | 74 | 1008.6 |
| 20260506214003 | 22 | 360 | 1.6 | 9.7 | 0.00 | 0.00 | 0.00 | 74 | 1008.6 |
| 20260506213503 | 21 | 360 | 3.2 | 9.7 | 0.00 | 0.00 | 0.00 | 74 | 1008.6 |
| 20260506213009 | 21 | 360 | 3.2 | 12.9 | 0.00 | 0.00 | 0.00 | 75 | 1008.7 |
| 20260506212503 | 21 | 360 | 3.2 | 12.9 | 0.00 | 0.00 | 0.00 | 75 | 1008.4 |
| 20260506212005 | 21 | 360 | 1.6 | 12.9 | 0.00 | 0.00 | 0.00 | 75 | 1008.4 |
| 20260506211503 | 21 | 360 | 3.2 | 12.9 | 0.00 | 0.00 | 0.00 | 75 | 1008.5 |
| 20260506211004 | 21 | 360 | 3.2 | 12.9 | 0.00 | 0.00 | 0.00 | 75 | 1008.5 |
| 20260506210503 | 21 | 360 | 1.6 | 9.7 | 0.00 | 0.00 | 0.00 | 75 | 1008.4 |
| 20260506210008 | 21 | 360 | 3.2 | 12.9 | 0.00 | 0.00 | 0.00 | 75 | 1008.4 |
| 20260506205503 | 21 | 360 | 1.6 | 12.9 | 0.00 | 0.00 | 0.00 | 75 | 1008.5 |
| 20260506205002 | 21 | 360 | 3.2 | 12.9 | 0.00 | 0.00 | 0.00 | 75 | 1008.6 |
| 20260506204504 | 21 | 360 | 3.2 | 9.7 | 0.00 | 0.00 | 0.00 | 74 | 1008.6 |
| 20260506204007 | 21 | 360 | 3.2 | 9.7 | 0.00 | 0.00 | 0.00 | 74 | 1008.4 |
| 20260506203503 | 22 | 360 | 3.2 | 8.0 | 0.00 | 0.00 | 0.00 | 74 | 1008.3 |
| 20260506203003 | 22 | 360 | 1.6 | 8.0 | 0.00 | 0.00 | 0.00 | 74 | 1008.3 |
| 20260506202504 | 22 | 360 | 3.2 | 8.0 | 0.00 | 0.00 | 0.00 | 73 | 1008.2 |
| 20260506202003 | 22 | 360 | 3.2 | 9.7 | 0.00 | 0.00 | 0.00 | 73 | 1008.4 |
| 20260506201506 | 22 | 360 | 3.2 | 9.7 | 0.00 | 0.00 | 0.00 | 73 | 1008.3 |
| 20260506201003 | 22 | 360 | 4.8 | 9.7 | 0.00 | 0.00 | 0.00 | 73 | 1008.6 |
| 20260506200504 | 22 | 360 | 1.6 | 9.7 | 0.00 | 0.00 | 0.00 | 73 | 1008.8 |
| 20260506200019 | 22 | 360 | 3.2 | 9.7 | 0.00 | 0.00 | 0.00 | 73 | 1008.9 |
| 20260506195503 | 22 | 360 | 3.2 | 8.0 | 0.00 | 0.00 | 0.00 | 73 | 1009.1 |
| 20260506195003 | 22 | 228 | 1.6 | 11.3 | 0.00 | 0.00 | 0.00 | 73 | 1009.2 |
| 20260506194505 | 22 | 360 | 1.6 | 11.3 | 0.00 | 0.00 | 0.00 | 73 | 1009.0 |
| 20260506194003 | 22 | 223 | 3.2 | 11.3 | 0.00 | 0.00 | 0.00 | 72 | 1008.8 |
| 20260506193503 | 22 | 237 | 4.8 | 11.3 | 0.00 | 0.00 | 0.00 | 72 | 1008.7 |
| 20260506193008 | 22 | 360 | 3.2 | 11.3 | 0.00 | 0.00 | 0.00 | 72 | 1008.6 |
| 20260506192503 | 22 | 227 | 3.2 | 11.3 | 0.00 | 0.00 | 0.00 | 73 | 1008.9 |
| 20260506192004 | 22 | 114 | 3.2 | 14.5 | 0.00 | 0.00 | 0.00 | 73 | 1009.1 |
| 20260506191510 | 22 | 214 | 3.2 | 17.7 | 0.00 | 0.00 | 0.00 | 73 | 1009.2 |
| 20260506191003 | 22 | 223 | 6.4 | 17.7 | 0.00 | 0.00 | 0.00 | 73 | 1009.2 |
| 20260506190504 | 22 | 236 | 1.6 | 8.0 | 0.00 | 0.00 | 0.00 | 75 | 1009.3 |
| 20260506190008 | 22 | 231 | 3.2 | 12.9 | 0.00 | 0.00 | 0.00 | 75 | 1009.4 |
| 20260506185504 | 21 | 360 | 1.6 | 12.9 | 0.00 | 0.00 | 0.00 | 75 | 1009.6 |
| 20260506185004 | 21 | 360 | 3.2 | 19.3 | 0.00 | 0.00 | 0.00 | 76 | 1009.5 |
| 20260506184509 | 21 | 360 | 6.4 | 19.3 | 0.00 | 0.00 | 0.00 | 76 | 1009.5 |
| 20260506184005 | 21 | 360 | 1.6 | 9.7 | 0.00 | 0.00 | 0.00 | 78 | 1009.6 |
| 20260506183505 | 21 | 360 | 3.2 | 9.7 | 0.00 | 0.00 | 0.00 | 78 | 1009.7 |
| 20260506183008 | 21 | 360 | 3.2 | 9.7 | 0.00 | 0.00 | 0.00 | 79 | 1009.8 |
| 20260506182504 | 21 | 360 | 4.8 | 9.7 | 0.00 | 0.00 | 0.00 | 79 | 1009.8 |
| 20260506182006 | 20 | 360 | 3.2 | 9.7 | 0.00 | 0.00 | 0.00 | 80 | 1009.9 |
| 20260506181508 | 20 | 360 | 3.2 | 12.9 | 0.00 | 0.00 | 0.00 | 80 | 1010.2 |
| 20260506181004 | 20 | 360 | 3.2 | 16.1 | 0.00 | 0.00 | 0.00 | 80 | 1010.0 |
| 20260506180504 | 20 | 360 | 3.2 | 16.1 | 0.00 | 0.00 | 0.00 | 81 | 1010.0 |
| 20260506180011 | 20 | 360 | 1.6 | 8.0 | 0.00 | 0.00 | 0.00 | 81 | 1010.1 |
| 20260506175503 | 20 | 360 | 3.2 | 12.9 | 0.00 | 0.00 | 0.00 | 81 | 1010.2 |
| 20260506175004 | 20 | 360 | 3.2 | 12.9 | 0.00 | 0.00 | 0.00 | 81 | 1010.2 |
| 20260506174512 | 20 | 360 | 3.2 | 12.9 | 0.00 | 0.00 | 0.00 | 80 | 1010.0 |
| 20260506174004 | 20 | 360 | 3.2 | 14.5 | 0.00 | 0.00 | 0.00 | 80 | 1009.8 |
| 20260506173507 | 20 | 360 | 4.8 | 14.5 | 0.00 | 0.00 | 0.00 | 80 | 1010.1 |
| 20260506173014 | 20 | 360 | 3.2 | 14.5 | 0.00 | 0.00 | 0.00 | 81 | 1010.1 |
| 20260506172504 | 20 | 360 | 1.6 | 12.9 | 0.00 | 0.00 | 0.00 | 81 | 1010.1 |
| 20260506172004 | 20 | 360 | 1.6 | 12.9 | 0.00 | 0.00 | 0.00 | 80 | 1010.4 |
| 20260506171516 | 20 | 360 | 3.2 | 12.9 | 0.00 | 0.00 | 0.00 | 80 | 1010.6 |
| 20260506171002 | 20 | 360 | 3.2 | 9.7 | 0.00 | 0.00 | 0.00 | 80 | 1010.4 |
| 20260506170503 | 20 | 360 | 1.6 | 9.7 | 0.00 | 0.00 | 0.00 | 80 | 1010.5 |
| 20260506170004 | 20 | 360 | 1.6 | 9.7 | 0.00 | 0.00 | 0.00 | 79 | 1010.5 |
| 20260506165503 | 20 | 360 | 3.2 | 6.4 | 0.00 | 0.00 | 0.00 | 78 | 1010.7 |
| 20260506165005 | 20 | 360 | 1.6 | 8.0 | 0.00 | 0.00 | 0.00 | 77 | 1010.8 |
| 20260506164507 | 20 | 360 | 1.6 | 9.7 | 0.00 | 0.00 | 0.00 | 75 | 1011.1 |
| 20260506164004 | 20 | 360 | 1.6 | 16.1 | 0.00 | 0.00 | 0.00 | 75 | 1011.2 |
| 20260506163508 | 21 | 360 | 4.8 | 16.1 | 0.00 | 0.00 | 0.00 | 73 | 1011.5 |
| 20260506163006 | 21 | 360 | 4.8 | 17.7 | 0.00 | 0.00 | 0.00 | 72 | 1011.5 |
| 20260506162504 | 22 | 360 | 6.4 | 17.7 | 0.00 | 0.00 | 0.00 | 68 | 1011.4 |
| 20260506162004 | 22 | 360 | 0.0 | 12.9 | 0.00 | 0.00 | 0.00 | 68 | 1011.5 |
| 20260506161512 | 22 | 360 | 4.8 | 12.9 | 0.00 | 0.00 | 0.00 | 66 | 1011.5 |
| 20260506161003 | 22 | 360 | 4.8 | 12.9 | 0.00 | 0.00 | 0.00 | 65 | 1011.5 |
| 20260506160503 | 22 | 162 | 6.4 | 12.9 | 0.00 | 0.00 | 0.00 | 64 | 1011.5 |
| 20260506160017 | 23 | 231 | 4.8 | 11.3 | 0.00 | 0.00 | 0.00 | 63 | 1011.5 |
| 20260506155503 | 23 | 225 | 4.8 | 11.3 | 0.00 | 0.00 | 0.00 | 63 | 1011.4 |
| 20260506155002 | 23 | 184 | 3.2 | 14.5 | 0.00 | 0.00 | 0.00 | 64 | 1011.5 |
| 20260506154502 | 23 | 173 | 3.2 | 14.5 | 0.00 | 0.00 | 0.00 | 64 | 1011.6 |
| 20260506154005 | 23 | 190 | 3.2 | 14.5 | 0.00 | 0.00 | 0.00 | 64 | 1011.6 |
| 20260506153503 | 23 | 180 | 4.8 | 14.5 | 0.00 | 0.00 | 0.00 | 62 | 1011.4 |
| 20260506153007 | 23 | 194 | 4.8 | 14.5 | 0.00 | 0.00 | 0.00 | 62 | 1011.6 |
| 20260506152503 | 23 | 360 | 4.8 | 12.9 | 0.00 | 0.00 | 0.00 | 62 | 1011.5 |
| 20260506152004 | 23 | 360 | 1.6 | 9.7 | 0.00 | 0.00 | 0.00 | 64 | 1011.5 |
| 20260506151511 | 23 | 360 | 4.8 | 9.7 | 0.00 | 0.00 | 0.00 | 64 | 1011.6 |
| 20260506151002 | 23 | 360 | 1.6 | 8.0 | 0.00 | 0.00 | 0.00 | 64 | 1011.5 |
| 20260506150505 | 22 | 360 | 3.2 | 9.7 | 0.00 | 0.00 | 0.00 | 64 | 1011.5 |
| 20260506150014 | 22 | 360 | 3.2 | 9.7 | 0.00 | 0.00 | 0.00 | 63 | 1011.7 |
| 20260506145507 | 23 | 360 | 3.2 | 14.5 | 0.00 | 0.00 | 0.00 | 63 | 1011.6 |
| 20260506145006 | 23 | 217 | 3.2 | 14.5 | 0.00 | 0.00 | 0.00 | 63 | 1011.7 |
| 20260506144520 | 23 | 179 | 3.2 | 14.5 | 0.00 | 0.00 | 0.00 | 63 | 1011.6 |
| 20260506144007 | 23 | 219 | 4.8 | 17.7 | 0.00 | 0.00 | 0.00 | 63 | 1011.7 |
| 20260506143504 | 23 | 188 | 4.8 | 17.7 | 0.00 | 0.00 | 0.00 | 64 | 1011.6 |
| 20260506143014 | 23 | 242 | 4.8 | 12.9 | 0.00 | 0.00 | 0.00 | 64 | 1011.6 |
| 20260506142503 | 23 | 230 | 3.2 | 12.9 | 0.00 | 0.00 | 0.00 | 64 | 1011.7 |
| 20260506142004 | 22 | 360 | 1.6 | 9.7 | 0.00 | 0.00 | 0.00 | 65 | 1011.8 |
| 20260506141508 | 22 | 360 | 3.2 | 11.3 | 0.00 | 0.00 | 0.00 | 64 | 1011.8 |
| 20260506141006 | 23 | 178 | 1.6 | 12.9 | 0.00 | 0.00 | 0.00 | 64 | 1011.8 |
| 20260506140505 | 22 | 170 | 3.2 | 14.5 | 0.00 | 0.00 | 0.00 | 65 | 1011.9 |
| 20260506140013 | 22 | 223 | 3.2 | 14.5 | 0.00 | 0.00 | 0.00 | 65 | 1011.9 |
| 20260506135507 | 22 | 360 | 4.8 | 17.7 | 0.00 | 0.00 | 0.00 | 65 | 1011.7 |
| 20260506135006 | 22 | 360 | 4.8 | 17.7 | 0.00 | 0.00 | 0.00 | 65 | 1011.7 |
| 20260506134516 | 22 | 360 | 3.2 | 14.5 | 0.00 | 0.00 | 0.00 | 66 | 1011.9 |
| 20260506134008 | 22 | 360 | 3.2 | 14.5 | 0.00 | 0.00 | 0.00 | 66 | 1012.0 |
| 20260506133507 | 22 | 360 | 3.2 | 9.7 | 0.00 | 0.00 | 0.00 | 67 | 1012.0 |
| 20260506133021 | 21 | 360 | 1.6 | 9.7 | 0.00 | 0.00 | 0.00 | 69 | 1011.9 |
| 20260506132508 | 21 | 360 | 3.2 | 12.9 | 0.00 | 0.00 | 0.00 | 69 | 1012.0 |
| 20260506132005 | 21 | 360 | 4.8 | 12.9 | 0.00 | 0.00 | 0.00 | 69 | 1012.0 |
| 20260506131508 | 21 | 360 | 3.2 | 8.0 | 0.00 | 0.00 | 0.00 | 70 | 1011.9 |
| 20260506131004 | 21 | 360 | 3.2 | 8.0 | 0.00 | 0.00 | 0.00 | 71 | 1012.0 |
| 20260506130508 | 20 | 360 | 3.2 | 8.0 | 0.00 | 0.00 | 0.00 | 72 | 1012.0 |
| 20260506130012 | 20 | 360 | 3.2 | 12.9 | 0.00 | 0.00 | 0.00 | 72 | 1012.1 |
| 20260506125504 | 20 | 360 | 3.2 | 12.9 | 0.00 | 0.00 | 0.00 | 72 | 1012.1 |
| 20260506125005 | 20 | 360 | 3.2 | 9.7 | 0.00 | 0.00 | 0.00 | 73 | 1012.1 |
| 20260506124516 | 20 | 360 | 3.2 | 9.7 | 0.00 | 0.00 | 0.00 | 72 | 1012.2 |
| 20260506124005 | 20 | 360 | 3.2 | 12.9 | 0.00 | 0.00 | 0.00 | 73 | 1012.2 |
| 20260506123507 | 20 | 360 | 3.2 | 12.9 | 0.00 | 0.00 | 0.00 | 73 | 1012.2 |
| 20260506123021 | 20 | 360 | 3.2 | 9.7 | 0.00 | 0.00 | 0.00 | 73 | 1012.3 |
| 20260506122510 | 20 | 360 | 1.6 | 12.9 | 0.00 | 0.00 | 0.00 | 73 | 1012.4 |
| 20260506122007 | 19 | 360 | 4.8 | 12.9 | 0.00 | 0.00 | 0.00 | 73 | 1012.3 |
| 20260506121522 | 19 | 360 | 3.2 | 9.7 | 0.00 | 0.00 | 0.00 | 74 | 1012.4 |
| 20260506121008 | 19 | 360 | 3.2 | 9.7 | 0.00 | 0.00 | 0.00 | 75 | 1012.2 |
| 20260506120506 | 18 | 360 | 3.2 | 9.7 | 0.00 | 0.00 | 0.00 | 75 | 1012.3 |
| 20260506120008 | 18 | 360 | 1.6 | 8.0 | 0.00 | 0.00 | 0.00 | 76 | 1012.3 |
| 20260506115505 | 18 | 360 | 1.6 | 8.0 | 0.00 | 0.00 | 0.00 | 76 | 1012.3 |
| 20260506115004 | 18 | 360 | 1.6 | 8.0 | 0.00 | 0.00 | 0.00 | 76 | 1012.2 |
| 20260506114513 | 18 | 360 | 1.6 | 6.4 | 0.00 | 0.00 | 0.00 | 76 | 1012.2 |
| 20260506114005 | 18 | 360 | 1.6 | 6.4 | 0.00 | 0.00 | 0.00 | 76 | 1012.2 |
| 20260506113504 | 18 | 360 | 1.6 | 9.7 | 0.00 | 0.00 | 0.00 | 76 | 1012.2 |
| 20260506113019 | 18 | 360 | 1.6 | 9.7 | 0.00 | 0.00 | 0.00 | 76 | 1012.2 |
| 20260506112510 | 18 | 360 | 1.6 | 6.4 | 0.00 | 0.00 | 0.00 | 77 | 1012.1 |
| 20260506112006 | 18 | 360 | 1.6 | 8.0 | 0.00 | 0.00 | 0.00 | 77 | 1012.0 |
| 20260506111527 | 18 | 360 | 0.0 | 8.0 | 0.00 | 0.00 | 0.00 | 78 | 1011.9 |
| 20260506111006 | 17 | 360 | 1.6 | 6.4 | 0.00 | 0.00 | 0.00 | 78 | 1012.0 |
| 20260506110507 | 17 | 360 | 1.6 | 6.4 | 0.00 | 0.00 | 0.00 | 79 | 1012.0 |
| 20260506110025 | 17 | 360 | 1.6 | 6.4 | 0.00 | 0.00 | 0.00 | 78 | 1011.8 |
| 20260506105512 | 17 | 360 | 1.6 | 6.4 | 0.00 | 0.00 | 0.00 | 78 | 1011.9 |
| 20260506105007 | 17 | 360 | 1.6 | 6.4 | 0.00 | 0.00 | 0.00 | 78 | 1011.9 |
| 20260506104513 | 17 | 360 | 0.0 | 4.8 | 0.00 | 0.00 | 0.00 | 78 | 1012.0 |
| 20260506104002 | 17 | 360 | 1.6 | 3.2 | 0.00 | 0.00 | 0.00 | 78 | 1012.1 |
| 20260506103506 | 17 | 360 | 0.0 | 6.4 | 0.00 | 0.00 | 0.00 | 78 | 1012.1 |
| 20260506103022 | 17 | 360 | 1.6 | 8.0 | 0.00 | 0.00 | 0.00 | 78 | 1012.2 |
| 20260506102507 | 17 | 107 | 1.6 | 8.0 | 0.00 | 0.00 | 0.00 | 78 | 1012.2 |
| 20260506102007 | 17 | 224 | 0.0 | 6.4 | 0.00 | 0.00 | 0.00 | 78 | 1012.1 |
| 20260506101523 | 17 | 231 | 0.0 | 6.4 | 0.00 | 0.00 | 0.00 | 78 | 1012.1 |
| 20260506101010 | 17 | 207 | 1.6 | 6.4 | 0.00 | 0.00 | 0.00 | 78 | 1012.0 |
| 20260506100507 | 17 | 360 | 0.0 | 4.8 | 0.00 | 0.00 | 0.00 | 77 | 1012.0 |
| 20260506100025 | 17 | 200 | 0.0 | 4.8 | 0.00 | 0.00 | 0.00 | 77 | 1011.8 |
| 20260506095508 | 17 | 207 | 1.6 | 4.8 | 0.00 | 0.00 | 0.00 | 77 | 1011.8 |
| 20260506095009 | 17 | 207 | 0.0 | 4.8 | 0.00 | 0.00 | 0.00 | 77 | 1011.8 |
| 20260506094527 | 17 | 360 | 0.0 | 4.8 | 0.00 | 0.00 | 0.00 | 77 | 1011.8 |
| 20260506094009 | 17 | 360 | 0.0 | 4.8 | 0.00 | 0.00 | 0.00 | 76 | 1012.0 |
| 20260506093510 | 17 | 360 | 0.0 | 4.8 | 0.00 | 0.00 | 0.00 | 76 | 1012.0 |
| 20260506093023 | 17 | 360 | 0.0 | 4.8 | 0.00 | 0.00 | 0.00 | 76 | 1012.0 |
| 20260506092506 | 17 | 360 | 0.0 | 6.4 | 0.00 | 0.00 | 0.00 | 75 | 1011.8 |
| 20260506092007 | 17 | 360 | 1.6 | 6.4 | 0.00 | 0.00 | 0.00 | 75 | 1011.9 |
| 20260506091520 | 17 | 360 | 1.6 | 8.0 | 0.00 | 0.00 | 0.00 | 75 | 1011.9 |
| 20260506091007 | 17 | 360 | 0.0 | 8.0 | 0.00 | 0.00 | 0.00 | 75 | 1011.8 |
| 20260506090506 | 17 | 360 | 0.0 | 8.0 | 0.00 | 0.00 | 0.00 | 75 | 1011.9 |
| 20260506090025 | 17 | 360 | 0.0 | 8.0 | 0.00 | 0.00 | 0.00 | 75 | 1011.9 |
| 20260506085507 | 17 | 360 | 1.6 | 4.8 | 0.00 | 0.00 | 0.00 | 75 | 1011.9 |
| 20260506085008 | 17 | 360 | 1.6 | 4.8 | 0.00 | 0.00 | 0.00 | 75 | 1012.1 |
| 20260506084524 | 17 | 360 | 0.0 | 4.8 | 0.00 | 0.00 | 0.00 | 76 | 1012.1 |
| 20260506084012 | 17 | 360 | 0.0 | 4.8 | 0.00 | 0.00 | 0.00 | 76 | 1012.0 |
| 20260506083510 | 17 | 152 | 0.0 | 4.8 | 0.00 | 0.00 | 0.00 | 76 | 1012.0 |
| 20260506083027 | 17 | 213 | 1.6 | 4.8 | 0.00 | 0.00 | 0.00 | 76 | 1012.0 |
| 20260506082515 | 17 | 217 | 1.6 | 4.8 | 0.00 | 0.00 | 0.00 | 76 | 1012.1 |
| 20260506082012 | 17 | 217 | 1.6 | 4.8 | 0.00 | 0.00 | 0.00 | 76 | 1012.2 |
| 20260506081518 | 17 | 159 | 1.6 | 6.4 | 0.00 | 0.00 | 0.00 | 77 | 1012.2 |
| 20260506081004 | 17 | 229 | 1.6 | 8.0 | 0.00 | 0.00 | 0.00 | 77 | 1012.2 |
| 20260506080503 | 17 | 22 | 1.6 | 8.0 | 0.00 | 0.00 | 0.00 | 77 | 1012.2 |
| 20260506073507 | 17 | 186 | 1.6 | 6.4 | 0.00 | 0.00 | 0.00 | 79 | 1012.2 |
| 20260506073011 | 17 | 39 | 1.6 | 4.8 | 0.00 | 0.00 | 0.00 | 79 | 1012.2 |
| 20260506072504 | 17 | 226 | 1.6 | 4.8 | 0.00 | 0.00 | 0.00 | 79 | 1012.1 |
| 20260506072003 | 17 | 188 | 1.6 | 4.8 | 0.00 | 0.00 | 0.00 | 80 | 1012.1 |
| 20260506071514 | 17 | 178 | 1.6 | 6.4 | 0.00 | 0.00 | 0.00 | 80 | 1012.0 |
| 20260506071001 | 17 | 360 | 1.6 | 6.4 | 0.00 | 0.00 | 0.00 | 80 | 1012.0 |
| 20260506070503 | 17 | 75 | 1.6 | 6.4 | 0.00 | 0.00 | 0.00 | 80 | 1012.1 |
| 20260506062503 | 18 | 188 | 0.0 | 6.4 | 0.00 | 0.00 | 0.00 | 80 | 1012.4 |
| 20260506062008 | 18 | 202 | 3.2 | 6.4 | 0.00 | 0.00 | 0.00 | 80 | 1012.4 |
| 20260506061512 | 18 | 185 | 1.6 | 8.0 | 0.00 | 0.00 | 0.00 | 80 | 1012.4 |
| 20260506061006 | 18 | 360 | 1.6 | 9.7 | 0.00 | 0.00 | 0.00 | 80 | 1012.4 |
| 20260506060505 | 18 | 360 | 0.0 | 9.7 | 0.00 | 0.00 | 0.00 | 80 | 1012.5 |